CW5920 Weather Reports


Display with metric or nautical units.
time (UTC)temp
F
wind
direction
speed
MPH
gust
MPH
rain 1hr
in
rain 24hr
in
rain mn
in
humidity
%
barometer
mb
20190325163017 66 356 7.0 14.0 0.00 0.01 0.01 61 1024.1
20190325162016 65 350 7.0 13.0 0.00 0.01 0.01 62 1024.1
20190325161016 65 6 9.0 26.0 0.00 0.01 0.01 63 1024.0
20190325160017 64 359 9.0 17.0 0.00 0.01 0.01 63 1023.9
20190325155015 63 1 11.0 17.0 0.00 0.01 0.01 64 1023.8
20190325154016 63 3 9.0 15.0 0.00 0.01 0.01 66 1023.7
20190325153017 63 1 10.0 16.0 0.00 0.01 0.01 67 1023.7
20190325152017 63 356 7.0 13.0 0.00 0.01 0.01 69 1023.4
20190325151017 62 355 8.0 14.0 0.00 0.01 0.01 68 1023.2
20190325150017 61 14 7.0 13.0 0.00 0.01 0.01 69 1023.1
20190325145017 61 3 8.0 14.0 0.00 0.01 0.01 70 1022.8
20190325144017 60 7 7.0 12.0 0.00 0.01 0.01 71 1022.6
20190325143016 60 2 7.0 11.0 0.00 0.01 0.01 73 1022.4
20190325142017 60 24 5.0 11.0 0.00 0.01 0.01 72 1022.2
20190325141017 59 6 7.0 11.0 0.00 0.01 0.01 74 1022.0
20190325140017 58 9 6.0 10.0 0.00 0.01 0.01 76 1021.9
20190325135016 58 359 5.0 11.0 0.00 0.01 0.01 78 1021.9
20190325134017 57 5 5.0 10.0 0.00 0.01 0.01 79 1021.7
20190325133016 57 4 3.0 7.0 0.00 0.01 0.01 80 1021.4
20190325132017 56 1 3.0 7.0 0.00 0.01 0.01 81 1021.3
20190325131016 56 354 2.0 6.0 0.00 0.01 0.01 82 1021.4
20190325130016 56 5 3.0 6.0 0.00 0.01 0.01 81 1021.2
20190325125016 56 17 3.0 8.0 0.00 0.01 0.01 81 1021.1
20190325124016 56 21 5.0 10.0 0.00 0.01 0.01 80 1020.9
20190325123017 56 18 5.0 10.0 0.00 0.01 0.01 80 1020.9
20190325122017 56 4 4.0 12.0 0.00 0.01 0.01 81 1020.8
20190325121016 57 9 4.0 9.0 0.00 0.01 0.01 80 1020.8
20190325120016 57 6 6.0 9.0 0.00 0.01 0.01 80 1020.6
20190325115016 57 3 6.0 11.0 0.00 0.01 0.01 79 1020.6
20190325114017 58 359 7.0 12.0 0.00 0.01 0.01 79 1020.5
20190325113017 58 3 7.0 14.0 0.00 0.01 0.01 79 1020.4
20190325112016 58 6 7.0 13.0 0.00 0.01 0.01 79 1020.3
20190325111017 58 3 9.0 14.0 0.00 0.01 0.01 79 1020.3
20190325110017 58 2 8.0 12.0 0.00 0.01 0.01 80 1020.2
20190325105016 58 359 7.0 15.0 0.00 0.01 0.01 80 1020.0
20190325104016 59 355 6.0 12.0 0.00 0.01 0.01 81 1019.9
20190325103016 59 354 5.0 10.0 0.00 0.01 0.01 81 1019.7
20190325102017 59 1 6.0 10.0 0.00 0.01 0.01 82 1019.6
20190325101016 59 357 4.0 8.0 0.00 0.01 0.01 81 1019.3
20190325100016 60 12 4.0 9.0 0.00 0.01 0.01 81 1019.1
20190325095016 60 8 2.0 7.0 0.00 0.01 0.01 81 1018.9
20190325094017 60 20 3.0 7.0 0.00 0.01 0.01 81 1018.7
20190325093017 61 16 4.0 8.0 0.00 0.01 0.01 81 1018.5
20190325092016 61 8 3.0 7.0 0.00 0.01 0.01 81 1018.4
20190325091016 61 20 2.0 7.0 0.00 0.01 0.01 81 1018.3
20190325090016 61 24 3.0 5.0 0.00 0.01 0.01 80 1018.2
20190325085017 61 41 2.0 7.0 0.00 0.01 0.01 79 1018.2
20190325084016 61 35 2.0 7.0 0.00 0.01 0.01 79 1018.1
20190325083017 61 43 2.0 6.0 0.00 0.01 0.01 79 1017.9
20190325082016 61 23 2.0 7.0 0.00 0.01 0.01 80 1018.0
20190325081016 61 17 3.0 5.0 0.00 0.01 0.01 81 1018.0
20190325080016 61 1 1.0 5.0 0.00 0.01 0.01 81 1018.0
20190325075016 61 355 1.0 5.0 0.00 0.01 0.01 81 1018.0
20190325074016 61 348 3.0 10.0 0.00 0.01 0.01 80 1017.9
20190325073017 62 355 4.0 11.0 0.00 0.01 0.01 80 1017.8
20190325072016 62 350 5.0 12.0 0.00 0.01 0.01 81 1017.9
20190325071016 62 353 6.0 12.0 0.00 0.01 0.01 81 1017.8
20190325070017 62 345 7.0 14.0 0.01 0.01 0.01 81 1017.9
20190325065016 62 346 7.0 13.0 0.01 0.01 0.01 82 1018.0
20190325064017 62 344 8.0 15.0 0.01 0.01 0.01 82 1018.1
20190325063017 62 351 8.0 14.0 0.01 0.01 0.01 83 1018.1
20190325062016 62 348 8.0 13.0 0.01 0.01 0.01 84 1018.1
20190325061016 63 344 8.0 15.0 0.01 0.01 0.01 84 1018.0
20190325060017 64 342 7.0 16.0 0.00 0.00 0.00 83 1018.1
20190325055016 64 351 7.0 13.0 0.00 0.00 0.00 86 1017.7
20190325054016 65 289 2.0 8.0 0.00 0.00 0.00 88 1018.0
20190325053016 65 312 4.0 9.0 0.00 0.00 0.00 86 1017.6
20190325052016 66 123 1.0 4.0 0.00 0.00 0.00 85 1017.0
20190325051016 66 125 0.0 4.0 0.00 0.00 0.00 84 1017.3
20190325050016 66 125 0.0 2.0 0.00 0.00 0.00 84 1017.2
20190325045015 67 126 0.0 2.0 0.00 0.00 0.00 84 1017.1
20190325044015 67 116 2.0 4.0 0.00 0.00 0.00 83 1017.2
20190325043015 68 5 0.0 2.0 0.00 0.00 0.00 83 1017.2
20190325042015 68 5 1.0 3.0 0.00 0.00 0.00 83 1017.2
20190325041015 68 5 2.0 4.0 0.00 0.00 0.00 82 1017.4
20190325040015 69 8 2.0 5.0 0.00 0.00 0.00 81 1017.3
20190325035015 69 345 2.0 5.0 0.00 0.00 0.00 79 1017.2
20190325034015 70 300 2.0 4.0 0.00 0.00 0.00 78 1017.1
20190325033015 71 246 1.0 3.0 0.00 0.00 0.00 78 1017.0
20190325032016 71 245 0.0 5.0 0.00 0.00 0.00 77 1016.9
20190325031016 71 248 1.0 9.0 0.00 0.00 0.00 77 1016.9
20190325030015 72 256 1.0 8.0 0.00 0.00 0.00 76 1016.8
20190325025015 72 277 3.0 14.0 0.00 0.00 0.00 75 1016.8
20190325024015 72 171 8.0 15.0 0.00 0.00 0.00 75 1015.6
20190325023015 72 161 10.0 19.0 0.00 0.00 0.00 75 1015.2
20190325022015 72 170 9.0 17.0 0.00 0.00 0.00 76 1015.2
20190325021015 72 164 10.0 16.0 0.00 0.00 0.00 75 1014.9
20190325020015 72 156 8.0 14.0 0.00 0.00 0.00 75 1014.8
20190325015015 72 161 7.0 15.0 0.00 0.00 0.00 74 1014.7
20190325014015 73 166 7.0 12.0 0.00 0.00 0.00 74 1014.7
20190325013015 73 165 8.0 15.0 0.00 0.00 0.00 73 1014.4
20190325012015 73 168 8.0 14.0 0.00 0.00 0.00 72 1014.4
20190325011015 74 168 8.0 15.0 0.00 0.00 0.00 71 1014.4
20190325010015 74 166 8.0 14.0 0.00 0.00 0.00 70 1014.4
20190325005015 75 167 10.0 19.0 0.00 0.00 0.00 69 1014.4
20190325004015 76 165 8.0 14.0 0.00 0.00 0.00 67 1014.4
20190325003015 76 172 7.0 13.0 0.00 0.00 0.00 64 1014.3
20190325002015 77 174 9.0 18.0 0.00 0.00 0.00 62 1014.3
20190325001015 78 172 10.0 17.0 0.00 0.00 0.00 60 1014.3
20190325000015 79 174 9.0 15.0 0.00 0.00 0.00 59 1014.2
20190324235015 80 187 8.0 15.0 0.00 0.00 0.00 56 1014.3
20190324234015 80 187 7.0 15.0 0.00 0.00 0.00 55 1014.4
20190324233015 80 178 8.0 16.0 0.00 0.00 0.00 56 1014.4
20190324232015 80 179 7.0 17.0 0.00 0.00 0.00 56 1014.3
20190324231015 80 171 8.0 16.0 0.00 0.00 0.00 58 1014.3
20190324230015 80 166 10.0 16.0 0.00 0.00 0.00 58 1014.5
20190324225015 81 173 10.0 18.0 0.00 0.00 0.00 58 1014.6
20190324224015 81 168 9.0 17.0 0.00 0.00 0.00 58 1014.7
20190324223015 81 171 10.0 17.0 0.00 0.00 0.00 58 1014.6
20190324222015 81 143 11.0 19.0 0.00 0.00 0.00 61 1014.8
20190324221015 80 159 9.0 17.0 0.00 0.00 0.00 61 1014.8
20190324220015 80 158 8.0 16.0 0.00 0.00 0.00 59 1014.9
20190324215015 81 156 8.0 14.0 0.00 0.00 0.00 57 1015.1
20190324214015 82 173 8.0 16.0 0.00 0.00 0.00 53 1015.1
20190324213015 82 186 6.0 16.0 0.00 0.00 0.00 53 1015.2
20190324212015 82 192 6.0 19.0 0.00 0.00 0.00 54 1015.2
20190324211016 82 180 8.0 19.0 0.00 0.00 0.00 54 1015.4
20190324210015 83 182 9.0 20.0 0.00 0.00 0.00 53 1015.5
20190324205015 82 196 5.0 15.0 0.00 0.00 0.00 55 1015.5
20190324204015 81 182 6.0 13.0 0.00 0.00 0.00 59 1015.6
20190324203015 81 206 4.0 18.0 0.00 0.00 0.00 56 1015.6
20190324202015 81 186 7.0 14.0 0.00 0.00 0.00 59 1015.7
20190324201015 80 163 9.0 16.0 0.00 0.00 0.00 61 1015.8
20190324200015 80 169 8.0 17.0 0.00 0.00 0.00 60 1015.9
20190324195015 80 183 6.0 17.0 0.00 0.00 0.00 60 1016.0
20190324194015 79 164 8.0 16.0 0.00 0.00 0.00 61 1016.1
20190324193015 80 195 6.0 13.0 0.00 0.00 0.00 63 1016.3
20190324192015 79 181 7.0 17.0 0.00 0.00 0.00 59 1016.5
20190324191015 80 176 7.0 16.0 0.00 0.00 0.00 59 1016.6
20190324190015 80 193 4.0 14.0 0.00 0.00 0.00 62 1016.7
20190324185015 80 217 3.0 10.0 0.00 0.00 0.00 60 1016.9
20190324184015 80 203 4.0 12.0 0.00 0.00 0.00 61 1017.0
20190324183015 80 215 5.0 16.0 0.00 0.00 0.00 60 1017.2
20190324182015 80 193 7.0 14.0 0.00 0.00 0.00 60 1017.3
20190324181015 80 193 8.0 14.0 0.00 0.00 0.00 62 1017.5
20190324180016 79 195 6.0 17.0 0.00 0.00 0.00 64 1017.6
20190324175015 78 201 6.0 16.0 0.00 0.00 0.00 64 1017.7
20190324174015 77 208 6.0 12.0 0.00 0.00 0.00 66 1017.8
20190324173015 77 217 6.0 15.0 0.00 0.00 0.00 67 1017.8
20190324172015 77 230 6.0 15.0 0.00 0.00 0.00 67 1018.0
20190324171015 76 212 5.0 16.0 0.00 0.00 0.00 70 1017.9
20190324170015 75 225 6.0 14.0 0.00 0.00 0.00 72 1018.0
20190324165015 73 218 7.0 19.0 0.00 0.00 0.00 74 1018.1
20190324164015 73 190 6.0 11.0 0.00 0.00 0.00 77 1018.2